Location: St Paul
(44.9440°N, 93.0930°W)
Time: 04:22:05
(UTC-05:00)

Envisat - Visible Passes

Search period start: 24 June 2018 00:00
Search period end: 04 July 2018 00:00
Orbit: 764 x 766 km, 98.2° (Epoch: 23 June)

Date Brightness Start Highest point End Pass type
(mag) Time Alt. Az. Time Alt. Az. Time Alt. Az.
26 Jun 5.6 21:40:52 10° SW 21:44:19 18° W 21:47:47 10° NW visible
28 Jun 6.1 22:09:56 10° W 22:10:14 10° W 22:10:33 10° W visible
01 Jul 5.8 21:56:35 10° WSW 21:58:55 13° W 22:01:16 10° WNW visible
